Regional Weather Roundup
Issued by NWS

Home | Current Version | Previous Version | Text Only | Print | Product List | Glossary Off
Versions: 1 2 3 4 5 6 7 8 9 10 11 12 13 14 15 16 17 18 19 20 21 22 23 24 25 26 27 28 29 30 31 32 33 34 35 36 37 38 39 40 41 42 43 44 45 46 47 48 49 50

000
ASUS43 KMKX 281614
RWRWI

WISCONSIN REGIONAL WEATHER ROUNDUP
NATIONAL WEATHER SERVICE MILWAUKEE/SULLIVAN WI
1100 AM CDT THU MAY 28 2015

NOTE: "FAIR" INDICATES FEW OR NO CLOUDS BELOW 12,000 FEET WITH NO
SIGNIFICANT WEATHER AND/OR OBSTRUCTIONS TO VISIBILITY.

WIZ001-002-006>008-014>016-023>028-281700-
NORTHWEST WISCONSIN

CITY           SKY/WX    TMP DP  RH WIND       PRES   REMARKS
SUPERIOR ARPT  CLOUDY    43  41  93 NE8       30.12S FOG
ASHLAND        SUNNY     57  49  74 N9        30.10F
HAYWARD        SUNNY     77  58  51 S10       30.07F
SIREN          MOSUNNY   78  52  39 SW9G16    30.05F
CUMBERLAND     MOSUNNY   73  55  53 SW6       30.08S
RICE LAKE      MOSUNNY   78  55  44 S7        30.09F
CHETEK         MOSUNNY   77  60  55 SE3       30.08F
LADYSMITH      MOSUNNY   75  62  63 S5        30.11F
EAU CLAIRE     SUNNY     80  57  45 S9        30.08F HX  80
MENOMONIE      SUNNY     76  60  57 S9        30.08F
NEW RICHMOND   MOSUNNY   78  53  43 SW10      30.07S
OSCEOLA        MOSUNNY   79  57  48 S9        30.08S HX  80
$$

WIZ003>005-009-010-017-018-281700-
NORTH CENTRAL WISCONSIN

CITY           SKY/WX    TMP DP  RH WIND       PRES   REMARKS
MANITOWISH WTR SUNNY     75  60  59 S7        30.11F
ARBOR VITAE    SUNNY     77  60  56 S9        30.12F
WOODRUFF       SUNNY     77  60  56 S9        30.12F
RHINELANDER    SUNNY     78  59  51 SW9       30.14S
EAGLE RIVER    SUNNY     77  52  41 SW7       30.13S
LAND O LAKES   SUNNY     77  54  44 S9        30.13F
PHILLIPS       MOSUNNY   75  59  57 S7        30.11S
TOMAHAWK       SUNNY     77  58  52 CALM      30.13F
MEDFORD        SUNNY     74  62  66 S7        30.14S
MERRILL        SUNNY     74  62  65 SW6       30.14S
$$

WIZ029-030-035-036-043>047-281700-
CENTRAL WISCONSIN

CITY           SKY/WX    TMP DP  RH WIND       PRES   REMARKS
WAUSAU         SUNNY     75  61  61 S7        30.12F
MOSINEE        SUNNY     73  63  68 SW8       30.15F
MARSHFIELD     SUNNY     78  59  51 SW9       30.13F
STEVENS POINT  SUNNY     75  59  57 S10       30.15F
WAUPACA        SUNNY     80  60  50 SW6       30.16S HX  81
WAUTOMA        SUNNY     81  61  50 SW8       30.15F HX  82
WISC RAPIDS    SUNNY     78  60  53 SW6       30.15F
CAMP DOUGLAS   SUNNY     79  63  57 S9        30.13F HX  80
$$

WIZ011>013-019>022-031-037>040-048>050-281700-
NORTHEAST WISCONSIN

CITY           SKY/WX    TMP DP  RH WIND       PRES   REMARKS
ANTIGO         SUNNY     73  64  73 SW5       30.15F
SHAWANO        SUNNY     75  64  67 SE5       30.15S
OCONTO         SUNNY     71  60  69 SE6       30.15R
STURGEON BAY   SUNNY     70  61  73 SE7       30.19S
GREEN BAY      SUNNY     76  64  66 S8        30.15F
MANITOWOC      SUNNY     63  57  81 S7        30.18S
APPLETON       SUNNY     75  59  57 SW8       30.17S
CLINTONVILLE   SUNNY     73  63  68 S6        30.15S
OSHKOSH        SUNNY     78  60  53 SW6       30.16S
$$

WIZ032>034-041-042-053>061-281700-
SOUTHWEST WISCONSIN

CITY           SKY/WX    TMP DP  RH WIND       PRES   REMARKS
LA CROSSE      MOSUNNY   78  61  55 S7        30.11F HX  80
SPARTA         MOSUNNY   79  55  44 S9        30.14S
VIROQUA        MOSUNNY   76  60  57 SW8       30.16S
BOSCOBEL       MOSUNNY   80  59  48 VRB6      30.14F HX  81
PRAIRIE DU CHI PTSUNNY   76  58  52 S5        30.13F
PLATTEVILLE    MOSUNNY   76  59  54 S10       30.17S
$$

WIZ056-057-062-063-064-067-068-281700-
SOUTH CENTRAL WISCONSIN

CITY           SKY/WX    TMP DP  RH WIND       PRES   REMARKS
REEDSBURG      MOSUNNY   76  62  63 S5        30.15F
BARABOO/DELLS  MOSUNNY   75  59  57 SW9       30.16F
LONE ROCK      MOSUNNY   78  59  51 SW8       30.15F
MINERAL POINT  MOSUNNY   77  59  53 S8        30.17F
MADISON        PTSUNNY   78  57  48 VRB3      30.17F
MIDDLETON      MOSUNNY   79  55  43 SW9       30.17F
WATERTOWN      SUNNY    N/A N/A N/A SW9       30.18S
MONROE         MOSUNNY   75  61  60 S10       30.18F
JANESVILLE     SUNNY     79  57  47 CALM      30.18F HX  80
$$

WIZ051-052-058>065-066-070>072-281700-
SOUTHEAST WISCONSIN

CITY           SKY/WX    TMP DP  RH WIND       PRES   REMARKS
MILWAUKEE      SUNNY     78  58  49 SW8       30.19F
WAUKESHA       SUNNY     75  57  53 SW6       30.20F
MILWAUKEE/TIMM SUNNY     77  55  47 W7        30.20F
RACINE         SUNNY     79  57  46 S9        30.21F HX  80
BURLINGTON     SUNNY     76  58  54 SW5       30.20S
KENOSHA        SUNNY     77  60  55 VRB5      30.20F
FOND DU LAC    SUNNY     77  61  57 SW9       30.17F
SHEBOYGAN      SUNNY     78  60  53 W9        30.17F
WEST BEND      SUNNY     77  57  50 SW8       30.19S
JUNEAU         SUNNY     75  61  60 SW7       30.19S
$$

LSZ147-162-281700-
LAKE SUPERIOR

STATION/POSITION TIME  TEMP    WIND        PRES    WAVE
                       AIR SEA DIR/SP/G            HT/PER
                 (UTC) (F)     (DEG/KT/KT) (MB)    (FT/S)
W MID LAKE BUOY  1550   39 37   50/ 16/ 17   N/A     2/ 4
DEVILS ISLAND    1600   40      60/ 15/ 17   N/A
PORT WING        1540   42      30/ 16/ 19   N/A
SAXON HARBOR     1500   46     340/  3/  6   N/A
$$

LMZ867-665-643>646-281700-
LAKE MICHIGAN

STATION/POSITION TIME  TEMP    WIND        PRES    WAVE
                       AIR SEA DIR/SP/G            HT/PER
                 (UTC) (F)     (DEG/KT/KT) (MB)    (FT/S)
CHAMBERS ISLAND  1500   54      10/  5/  7   N/A
N MID LAKE BUOY  1550   40 37  140/  4/  6   N/A     1/ 4
NORTHPORT PIER   1500   50     140/  5/  8   N/A
SISTER BAY       1518   59     340/  6/  7   N/A
ALGOMA LAKESHORE 1508          200/  8/  9   N/A
KEWAUNEE LAKESHO 1500   47     170/  4/  5   N/A
SHEBOYGAN LAKESH 1600   54     160/ 16/ 16   N/A
PORT WASHINGTON  1500          250/  7/ 10   N/A
ATWATER BUOY     1500   67 48  230/  8/ 12   N/A
MILWAUKEE LAKESH 1500   74     240/ 11/ 13   N/A
S MID LAKE BUOY  1550   45 38  180/  8/  8   N/A     0
KENOSHA   LAKESH 1600          170/  9/ 12   N/A
$$

TC  - TEMPERATURE IN CELSIUS
VSB - VISIBILITY IN STATUTE MILES
WCI - WIND CHILL INDEX
HX  - HEAT INDEX




USA.gov is the U.S. government's official web portal to all federal, state and local government web resources and services.